Home > Weather > Sault Ste. Marie > Past weeks

Flag for Canada Weather for the Past 2 Weeks in Sault Ste. Marie, Ontario, Canada

Now
46 °F

Passing clouds.


Feels Like: 44 °F
Forecast: 38 / 59 °F
Wind: 6 mph from Northwest

Location: Sault Ste Marie

Current Time: May 2, 2016 at 9:42:08 AM

Latest Report: May 2, 2016 at 9:00 AM


Visibility: 15 mi

Pressure: 30.11 "Hg

Humidity: 71%

Dew Point: 37 °F

Location of Sault Ste. MarieLocation

Historic Weather in Sault Ste. Marie — Graph

°F

Sault Ste. Marie Temperature Yesterday

Maximum temperature yesterday: 59 °F (at 2:00 PM)
Minimum temperature yesterday: 36 °F (at 1:00 AM)
Average temperature yesterday: 49 °F

High & Low Weather Summary for the Past Weeks

 TemperatureHumidityPressure
High75 °F (Apr 17, 3:00 PM)100% (Apr 19, 2:00 AM)30.48 "Hg (Apr 19, 2:00 AM)
Low25 °F (Apr 27, 6:00 AM)20% (Apr 17, 7:00 PM)29.80 "Hg (Apr 21, 5:00 PM)
Average42 °F67%30.16 "Hg
* Reported Apr 17 8:00 AM — May 2 8:00 AM, Sault Ste. Marie, Weather by CustomWeather, © 2016

Note: Actual official high and low records may vary slightly from our data, if they occured in-between our weather recording intervals... More about our weather records

Advertising

Sault Ste. Marie Weather History for the Previous 24 Hours

Scroll right to see more
 ConditionsComfort  
Time TempWeatherWind HumidityBarometerVisibility
8:00 AM
Mon, May 2
45 °FPassing clouds.2 mph76%30.10 "Hg15 mi
7:00 AM32 °FPassing clouds.No wind93%30.10 "Hg15 mi
6:00 AM34 °FPassing clouds.No wind93%30.09 "Hg15 mi
5:00 AM37 °FPassing clouds.No wind87%30.08 "Hg15 mi
4:00 AM39 °FPassing clouds.No wind87%30.08 "Hg15 mi
3:00 AM41 °FPassing clouds.2 mph81%30.08 "Hg15 mi
2:00 AM41 °FOvercast.5 mph81%30.09 "Hg15 mi
1:00 AM41 °FOvercast.6 mph81%30.09 "Hg15 mi
12:00 AM41 °FOvercast.7 mph81%30.10 "Hg15 mi
11:00 PM
Sun, May 1
43 °FOvercast.8 mph76%30.11 "Hg15 mi
10:00 PM45 °FPassing clouds.5 mph71%30.11 "Hg15 mi
9:00 PM46 °FPartly sunny.7 mph62%30.11 "Hg15 mi
8:00 PM50 °FPartly sunny.8 mph50%30.10 "Hg15 mi
7:00 PM57 °FPartly sunny.10 mph36%30.09 "Hg15 mi
6:00 PM59 °FPartly sunny.13 mph31%30.10 "Hg15 mi
5:00 PM59 °FPartly sunny.12 mph36%30.10 "Hg15 mi
4:00 PM57 °FBroken clouds.10 mph39%30.11 "Hg15 mi
3:00 PM59 °FBroken clouds.12 mph36%30.11 "Hg15 mi
2:00 PM59 °FBroken clouds.6 mph34%30.14 "Hg15 mi
1:00 PM57 °FBroken clouds.5 mph36%30.16 "Hg15 mi
12:00 PM55 °FBroken clouds.9 mph41%30.17 "Hg15 mi
11:00 AM54 °FBroken clouds.12 mph44%30.16 "Hg15 mi
10:00 AM50 °FBroken clouds.14 mph47%30.16 "Hg15 mi
9:00 AM48 °FBroken clouds.14 mph54%30.16 "Hg15 mi
Weather by CustomWeather, © 2016

See weather overviewHow to use our weather pages